Location: Newark
(45.7500°N, 8.6667°E)
Time: 01:31:47
(UTC+00:00)

ISS - Pass Details

Date: 31 August 2019
Orbit: 411 x 421 km, 51.6° (Epoch: 17 October)

Event Time Altitude Azimuth Distance (km) Brightness Sun altitude
Exits shadow 02:45:38 31° 148° (SSE) 754 -2.6 -19.5°
Maximum altitude 02:45:49 31° 141° (SE) 750 -2.5 -19.5°
Drops below altitude 10° 02:48:50 10° 77° (ENE) 1,493 0.0 -19.1°
Sets 02:51:04 0° 67° (ENE) 2,362 1.6 -18.8°
